User: anonymous   Login
Location: El Bakhil
(32.7726°N, 5.5387°W)
Time: 19:22:52
(UTC+00:00)
Language:

Cosmos 1500 - Orbit

View from above orbital plane
View from above orbital plane
View from above satellite
View from above satellite

Ground track
Ground track

The orbit data is extracted from the following two-line orbital elements,

1 14372U 83099A   21335.55605257  .00001849  00000-0  84692-4 0  9990
2 14372  82.5141 171.8783 0014608 171.2866 188.8625 15.19782411 84543
Epoch (UTC): 01 December 2021 13:20:42
Eccentricity: 0.0014608
inclination: 82.5141°
perigee height: 496 km
apogee height: 516 km
right ascension of ascending node: 171.8783°
argument of perigee: 171.2866°
revolutions per day: 15.19782411
mean anomaly at epoch: 188.8625°
orbit number at epoch: 8454

The dashed part of the orbit path shows where the satellite is in the earth's shadow,  

DLR